Weather reports worldwide

Advertisment
Norderney, Germany (10113): temperature & dewpoint: 09.07.2018 21:00:00 - 15.07.2018 21:00:00 (CEST)Norderney, Germany (10113): temperature 5cm & temperature -5cm: 09.07.2018 21:00:00 - 15.07.2018 21:00:00 (CEST)Norderney, Germany (10113): temperature -20cm & temperature -100cm: 09.07.2018 21:00:00 - 15.07.2018 21:00:00 (CEST)Norderney, Germany (10113): wind speed & gusts: 09.07.2018 21:00:00 - 15.07.2018 21:00:00 (CEST)Norderney, Germany (10113): wind direction: 09.07.2018 21:00:00 - 15.07.2018 21:00:00 (CEST)Norderney, Germany (10113): reduced air pressure: 09.07.2018 21:00:00 - 15.07.2018 21:00:00 (CEST)Norderney, Germany (10113): visibility: 09.07.2018 21:00:00 - 15.07.2018 21:00:00 (CEST)Norderney, Germany (10113): sunshine duration: 09.07.2018 21:00:00 - 15.07.2018 21:00:00 (CEST)Norderney, Germany (10113): precipitation: 09.07.2018 21:00:00 - 15.07.2018 21:00:00 (CEST)
Date & Time tt [°C] td [°C] tt 5cm [°C] tt -5cm [°C] tt -20cm [°C] tt -100cm [°C] ff [km/h] ff [kn] fx [km/h] fx [kn] dd ppp [hPa] vv [km] sd [min] rr [mm]
15.07.2018 21:00:00 19,2 13,6 18,7 27,8 23,9 17,9 21 11 29 16 ENE 1017,2 75 60 0,0
15.07.2018 20:00:00 20,0 13,4 20,4 30,9 23,8 17,9 23 13 29 16 ENE 1017,3 63 60 0,0
15.07.2018 19:00:00 20,7 12,8 22,1 32,9 23,5 17,9 24 13 29 16 ENE 1017,5 67 60 0,0
15.07.2018 18:00:00 21,1 12,5 23,5 34,2 23,1 17,9 22 12 29 15 ENE 1017,8 75 60 0,0
15.07.2018 17:00:00 20,6 14,5 24,1 35,1 22,5 17,9 24 13 29 15 NE 1018,2 48 60 0,0
15.07.2018 16:00:00 20,6 14,9 25,2 35,0 21,9 17,9 20 11 23 12 NE 1018,4 53 60 0,0
15.07.2018 15:00:00 20,3 14,5 25,6 33,9 21,3 17,9 17 9 20 11 NE 1018,9 48 60 0,0
15.07.2018 14:00:00 18,9 13,7 26,6 32,1 20,6 17,9 14 8 17 9 NNE 1019,2 39 60 0,0
15.07.2018 13:00:00 18,7 13,2 26,8 29,7 20,1 17,9 13 7 15 8 N 1019,5 49 60 0,0
15.07.2018 12:00:00 19,9 13,0 28,9 26,8 19,6 17,9 10 5 18 10 NNW 1019,7 70 60 0,0
15.07.2018 11:00:00 19,9 12,3 27,0 23,4 19,4 17,9 8 4 16 9 SSW 1019,6 73 60 0,0
15.07.2018 10:00:00 17,5 11,9 22,3 19,9 19,3 17,9 10 5 15 8 S 1019,6 59 60 0,0
15.07.2018 09:00:00 16,1 11,5 19,7 17,3 19,4 17,9 10 6 14 8 S 1019,7 50 60 0,0
15.07.2018 08:00:00 15,6 11,8 16,9 15,8 19,6 17,9 8 4 12 6 S 1019,7 55 60 0,0
15.07.2018 07:00:00 14,8 12,6 12,8 15,3 19,9 17,9 7 4 12 7 S 1019,4 54 60 0,0
15.07.2018 06:00:00 14,2 12,6 12,0 15,1 20,2 17,9 8 5 11 6 S 1019,4 51 14 0,0
15.07.2018 05:00:00 13,3 11,2 10,2 15,4 20,6 17,9 7 4 8 4 SSE 1019,5 52 0 0,0
15.07.2018 04:00:00 14,0 12,2 7,9 16,1 20,9 17,9 3 2 5 3 SSE 1019,6 35 0 0,0
15.07.2018 03:00:00 14,4 12,3 8,7 16,8 21,3 17,9 5 3 8 4 ESE 1019,8 59 0 0,0
15.07.2018 02:00:00 14,2 11,9 10,9 17,6 21,6 17,9 7 4 8 4 ESE 1019,9 54 0 0,0
15.07.2018 01:00:00 14,6 11,8 11,3 18,7 22,0 17,9 6 3 13 7 E 1020,1 67 0 0,0
15.07.2018 00:00:00 15,3 11,7 13,2 20,0 22,3 17,9 10 5 15 8 NE 1020,3 46 0 0,0
14.07.2018 23:00:00 15,9 11,9 13,9 21,5 22,6 17,9 11 6 16 8 NNE 1020,4 51 0 0,0
14.07.2018 22:00:00 16,2 12,0 14,8 23,6 22,8 17,9 12 6 16 9 N 1020,4 33 50 0,0
14.07.2018 21:00:00 16,6 12,0 16,3 26,5 22,8 17,9 10 6 16 9 N 1020,1 52 60 0,0
14.07.2018 20:00:00 17,3 12,0 19,3 29,8 22,6 17,9 13 7 19 10 N 1020,4 59 60 0,0
14.07.2018 19:00:00 17,6 12,0 21,7 31,6 22,2 17,9 13 7 21 11 N 1020,6 53 59 0,0
14.07.2018 18:00:00 18,0 12,5 24,3 32,4 21,8 17,9 16 9 21 11 NNW 1020,7 38 60 0,0
14.07.2018 17:00:00 18,0 12,0 26,2 32,4 21,2 17,9 14 7 18 10 NNW 1021,0 46 60 0,0
14.07.2018 16:00:00 19,1 12,1 27,3 31,3 20,7 17,9 13 7 19 10 NW 1021,2 34 60 0,0
14.07.2018 15:00:00 19,2 12,4 27,8 29,4 20,2 17,9 13 7 19 10 NNW 1021,5 27 56 0,0
14.07.2018 14:00:00 18,3 11,2 26,0 27,3 19,8 17,9 13 7 19 10 NW 1021,7 25 40 0,0
14.07.2018 13:00:00 17,9 11,3 24,6 24,7 19,5 17,9 10 5 19 10 NW 1021,8 37 14 0,0
14.07.2018 12:00:00 17,9 11,6 22,7 22,3 19,3 17,9 13 7 16 9 NW 1021,8 23 0 0,0
14.07.2018 11:00:00 17,2 11,4 20,2 20,3 19,3 17,9 10 6 15 8 WNW 1021,8 45 0 0,0
14.07.2018 10:00:00 17,0 10,7 19,6 18,9 19,3 17,9 11 6 15 8 NW 1021,8 53 0 0,0
14.07.2018 09:00:00 16,1 10,5 16,8 18,0 19,4 17,9 14 7 25 13 NNW 1021,6 33 0 0,0
14.07.2018 08:00:00 16,2 11,6 16,4 17,8 19,5 17,9 14 8 21 11 NW 1021,3 51 0 0,0
14.07.2018 07:00:00 16,2 10,4 16,0 17,5 19,6 17,9 11 6 16 8 WNW 1021,1 56 0 0,0
14.07.2018 06:00:00 16,0 10,5 15,3 17,4 19,8 17,9 10 6 20 11 NW 1021,1 45 0 0,0
14.07.2018 05:00:00 16,0 11,3 14,7 18,0 19,9 17,9 16 9 22 12 NW 1021,2 33 0 0,0
14.07.2018 04:00:00 16,3 11,7 15,7 18,1 20,1 17,9 12 7 18 10 NNW 1021,1 56 0 0,0
14.07.2018 03:00:00 16,2 9,9 15,5 18,5 20,2 17,9 17 9 24 13 NNW 1021,3 31 0 0,0
14.07.2018 02:00:00 16,3 11,4 16,0 18,8 20,4 17,9 14 7 21 11 NNW 1021,4 19 0 0,0
14.07.2018 01:00:00 16,7 12,8 16,2 19,1 20,6 17,9 13 7 18 10 NNW 1021,7 17 0 0,0
14.07.2018 00:00:00 16,5 11,3 16,1 19,5 20,7 17,9 8 4 21 11 NW 1021,8 32 0 0,0
13.07.2018 23:00:00 16,4 12,2 16,3 20,0 20,8 17,9 14 7 20 11 N 1021,8 15 0 0,0
13.07.2018 22:00:00 16,4 12,0 16,4 20,7 21,0 17,9 13 7 18 10 N 1021,5 38 0 0,0
13.07.2018 21:00:00 16,6 11,5 16,9 21,6 21,0 17,9 16 9 26 14 N 1021,4 30 0 0,0
13.07.2018 20:00:00 16,5 12,4 17,4 22,7 21,0 17,9 17 9 23 13 NNW 1021,4 39 0 0,0
13.07.2018 19:00:00 16,6 12,7 18,8 23,8 20,9 17,9 16 9 22 12 N 1021,5 39 0 0,0
13.07.2018 18:00:00 16,9 11,7 20,0 24,0 20,7 17,9 17 9 26 14 NW 1021,7 48 1 0,0
13.07.2018 17:00:00 17,3 12,6 21,0 24,0 20,6 17,9 20 11 25 13 NW 1021,8 25 0 0,0
13.07.2018 16:00:00 17,2 13,0 20,3 23,6 20,4 17,9 20 11 25 14 NW 1021,9 35 0 0,0
13.07.2018 15:00:00 16,9 12,5 20,7 23,1 20,3 17,9 23 12 27 15 NW 1022,0 18 0 0,0
13.07.2018 14:00:00 16,8 12,8 20,3 22,6 20,2 17,9 21 11 26 14 NNW 1021,9 12 0 0,0
13.07.2018 13:00:00 16,8 12,9 19,6 21,7 20,1 17,9 22 12 29 16 NNW 1021,9 13 0 0,0
13.07.2018 12:00:00 16,4 13,1 18,6 20,9 20,1 17,9 22 12 29 16 NW 1021,7 13 0 0,0
13.07.2018 11:00:00 16,1 13,1 18,5 20,2 20,1 17,9 21 11 31 17 NNW 1021,5 13 0 0,0
13.07.2018 10:00:00 15,7 13,2 17,5 19,7 20,1 17,9 24 13 31 17 NNW 1021,3 17 0 0,0
13.07.2018 09:00:00 15,7 13,2 17,1 19,2 20,2 17,9 24 13 33 18 N 1020,8 19 0 0,0
13.07.2018 08:00:00 16,0 12,9 17,0 18,5 20,4 17,9 21 11 32 17 NNW 1020,4 19 9 0,0
13.07.2018 07:00:00 15,7 12,7 15,7 18,2 20,6 17,9 26 14 31 17 NNW 1020,1 22 2 0,0
13.07.2018 06:00:00 15,7 12,6 15,0 18,2 20,8 17,9 26 14 29 16 NNW 1019,9 24 0 0,0
13.07.2018 05:00:00 15,7 12,5 14,9 18,5 21,0 17,8 25 14 30 16 NNW 1019,7 22 0 0,0
13.07.2018 04:00:00 15,7 12,5 15,3 19,1 21,2 17,8 24 13 35 19 NNW 1019,8 19 0 0,0
13.07.2018 03:00:00 15,7 13,2 15,7 19,4 21,4 17,8 23 13 32 18 NNW 1019,6 18 0 0,0
13.07.2018 02:00:00 15,7 13,2 15,7 19,7 21,6 17,8 25 14 35 19 NNW 1019,5 14 0 0,0
13.07.2018 01:00:00 15,7 13,3 15,8 20,2 21,9 17,8 21 12 34 18 N 1019,7 13 0 0,0
13.07.2018 00:00:00 16,0 13,5 16,1 20,7 22,1 17,8 26 14 34 18 NNW 1019,7 10 0 0,0
12.07.2018 23:00:00 16,2 13,7 16,4 21,3 22,4 17,8 28 15 36 19 NW 1019,5 12 0 0,0
12.07.2018 22:00:00 16,5 14,0 16,6 22,4 22,6 17,8 29 16 43 23 NNW 1019,2 12 0 0,0
12.07.2018 21:00:00 16,3 13,5 16,8 23,8 22,7 17,8 30 16 37 20 NW 1019,2 15 0 0,0
12.07.2018 20:00:00 16,6 13,7 17,7 25,8 22,7 17,8 26 14 36 19 NNW 1019,0 16 11 0,0
12.07.2018 19:00:00 16,9 13,5 18,8 27,6 22,6 17,8 29 16 37 20 NW 1018,8 23 19 0,0
12.07.2018 18:00:00 17,5 14,0 20,5 29,4 22,3 17,8 29 16 36 19 NW 1018,6 23 24 0,0
12.07.2018 17:00:00 18,2 14,5 22,6 30,8 22,0 17,8 25 14 31 17 NW 1018,8 21 52 0,0
12.07.2018 16:00:00 18,6 14,4 24,7 30,5 21,5 17,8 22 12 27 14 NW 1019,0 28 55 0,0
12.07.2018 15:00:00 18,0 14,2 25,4 29,6 21,1 17,8 22 12 29 15 NNW 1018,9 20 53 0,0
12.07.2018 14:00:00 17,7 14,3 25,1 28,4 20,6 17,8 23 13 28 15 NNW 1019,1 18 38 0,0
12.07.2018 13:00:00 18,3 14,9 25,7 27,4 20,2 17,8 23 12 27 14 NNW 1019,0 13 56 0,0
12.07.2018 12:00:00 18,0 14,8 25,4 25,5 19,8 17,8 19 11 23 13 NNW 1018,7 12 57 0,0
12.07.2018 11:00:00 17,9 14,9 25,7 23,3 19,5 17,8 18 10 22 12 NNW 1018,3 10 59 0,0
12.07.2018 10:00:00 17,7 15,2 22,4 20,8 19,4 17,8 18 10 24 13 N 1018,1 12 60 0,0
12.07.2018 09:00:00 17,4 14,9 20,7 18,6 19,5 17,8 21 11 24 13 N 1018,0 12 60 0,0
12.07.2018 08:00:00 17,0 15,0 18,5 17,6 19,6 17,8 21 11 29 16 N 1017,5 12 55 0,0
12.07.2018 07:00:00 16,7 15,1 15,8 17,4 19,8 17,8 24 13 29 16 N 1017,1 16 25 0,0
12.07.2018 06:00:00 16,5 14,9 15,5 17,4 20,0 17,8 22 12 29 16 N 1017,2 20 0 0,0
12.07.2018 05:00:00 16,9 14,7 15,6 17,7 20,2 17,8 24 13 30 16 N 1017,1 23 0 0,0
12.07.2018 04:00:00 17,2 14,5 15,6 17,9 20,4 17,8 27 14 33 18 N 1017,1 25 0 0,0
12.07.2018 03:00:00 17,2 14,3 15,9 18,2 20,6 17,8 28 15 34 18 N 1017,0 26 0 0,0
12.07.2018 02:00:00 17,3 14,5 15,9 18,5 20,8 17,8 29 15 32 17 N 1017,2 26 0 0,0
12.07.2018 01:00:00 17,4 14,8 16,1 19,0 21,1 17,8 27 15 38 21 N 1017,4 18 0 0,0
12.07.2018 00:00:00 17,5 14,6 16,4 19,5 21,3 17,8 31 17 38 20 N 1017,2 15 0 0,0
11.07.2018 23:00:00 17,8 14,7 16,6 20,3 21,5 17,8 32 17 42 23 N 1017,3 14 0 0,0
11.07.2018 22:00:00 17,7 14,6 16,9 21,4 21,7 17,8 32 17 37 20 N 1017,4 16 17 0,0
11.07.2018 21:00:00 18,1 14,9 17,8 22,8 21,8 17,8 28 15 34 19 N 1017,4 21 55 0,0
11.07.2018 20:00:00 18,1 14,8 18,6 24,1 21,8 17,8 29 16 38 20 N 1017,1 20 2 0,0
11.07.2018 19:00:00 18,5 14,9 20,0 25,1 21,8 17,8 33 18 37 20 N 1017,0 31 0 0,0
11.07.2018 18:00:00 18,6 15,3 20,7 26,6 21,6 17,8 26 14 29 16 N 1017,2 32 0 0,0
11.07.2018 17:00:00 18,9 15,3 22,5 28,4 21,2 17,8 24 13 31 17 N 1017,3 31 0 0,0
11.07.2018 16:00:00 19,2 15,3 24,2 29,7 20,7 17,8 25 14 31 17 N 1017,4 29 49 0,0
11.07.2018 15:00:00 19,0 15,8 25,9 28,1 20,2 17,8 26 14 30 16 N 1017,5 24 37 0,0
11.07.2018 14:00:00 18,7 15,3 24,9 27,5 19,8 17,8 23 13 29 16 N 1017,5 23 53 0,0
11.07.2018 13:00:00 18,3 15,2 22,7 24,5 19,5 17,8 23 13 31 17 N 1017,5 18 45 0,0
11.07.2018 12:00:00 18,2 14,5 21,9 22,0 19,4 17,8 27 15 34 19 N 1017,8 20 58 0,0
11.07.2018 11:00:00 17,4 14,5 18,5 20,0 19,3 17,8 22 12 27 15 NNW 1017,9 13 16 0,0
11.07.2018 10:00:00 17,2 14,1 17,7 19,0 19,4 17,8 22 12 34 18 N 1018,0 11 3 0,0
11.07.2018 09:00:00 17,0 14,8 16,6 18,5 19,4 17,8 28 15 43 23 NNE 1018,2 9 1 0,6
11.07.2018 08:00:00 16,9 14,6 17,2 18,2 19,5 17,8 35 19 45 25 N 1018,0 14 31 0,0
11.07.2018 07:00:00 17,0 14,8 16,6 18,0 19,7 17,8 29 16 37 20 N 1017,9 16 34 0,0
11.07.2018 06:00:00 17,0 14,5 16,7 18,1 19,8 17,8 29 15 34 19 NNE 1018,0 18 0 0,0
11.07.2018 05:00:00 16,9 14,4 16,6 18,1 20,0 17,8 29 16 33 18 N 1018,2 27 0 0,0
11.07.2018 04:00:00 16,9 14,4 16,1 18,2 20,1 17,8 17 9 33 18 NNW 1018,5 25 0 0,0
11.07.2018 03:00:00 16,4 11,8 16,3 18,3 20,3 17,8 26 14 34 19 NNE 1018,7 27 0 0,0
11.07.2018 02:00:00 17,0 13,4 16,4 18,2 20,6 17,8 19 11 24 13 NNE 1018,7 23 0 0,0
11.07.2018 01:00:00 16,9 13,6 15,2 18,4 20,8 17,8 19 10 26 14 NNE 1019,0 15 0 0,0
11.07.2018 00:00:00 17,2 13,5 15,8 19,1 21,1 17,9 23 12 32 18 NNE 1018,8 11 0 0,0
10.07.2018 23:00:00 17,4 12,6 16,4 20,0 21,4 17,9 26 14 36 20 NE 1018,6 11 0 0,0
10.07.2018 22:00:00 17,3 12,9 16,4 21,2 21,5 17,9 33 18 40 21 NNE 1018,3 11 32 0,0
10.07.2018 21:00:00 17,4 12,6 16,8 23,0 21,6 17,9 32 17 39 21 NNE 1018,1 9 38 0,0
10.07.2018 20:00:00 17,5 12,2 17,7 25,7 21,5 17,9 34 18 41 22 N 1017,7 9 45 0,0
10.07.2018 19:00:00 17,8 12,9 20,5 27,6 21,3 17,9 35 19 46 25 N 1017,4 12 60 0,0
10.07.2018 18:00:00 17,3 13,2 20,4 28,4 20,9 17,9 39 21 45 24 N 1017,3 14 60 0,0
10.07.2018 17:00:00 17,7 12,7 21,3 28,7 20,5 17,9 37 20 45 25 N 1017,1 24 60 0,0
10.07.2018 16:00:00 17,2 13,5 21,6 28,7 20,0 17,9 39 21 46 25 N 1017,1 18 60 0,0
10.07.2018 15:00:00 18,2 11,4 22,6 27,6 19,5 17,9 39 21 45 24 NNE 1016,9 24 59 0,0
10.07.2018 14:00:00 17,1 11,3 21,3 25,6 19,0 17,9 37 20 47 26 NNE 1016,3 19 57 0,0
10.07.2018 13:00:00 17,3 11,8 21,8 23,2 18,7 17,9 39 21 46 25 NNE 1015,9 16 60 0,0
10.07.2018 12:00:00 17,3 12,0 20,5 20,1 18,6 17,9 31 17 49 26 NE 1015,1 21 49 0,1
10.07.2018 11:00:00 16,3 14,7 17,2 18,0 18,6 17,9 37 20 44 24 N 1014,7 8 3 0,1
10.07.2018 10:00:00 15,6 14,2 15,8 17,5 18,7 17,9 29 16 40 22 NNE 1014,8 7 0 0,0
10.07.2018 09:00:00 15,4 14,0 15,4 17,3 18,7 17,9 31 17 40 22 N 1014,6 4,5 0 0,0
10.07.2018 08:00:00 15,7 14,6 15,5 17,0 18,8 17,9 35 19 40 22 N 1014,2 - 0 0,0
10.07.2018 07:00:00 15,6 14,7 15,0 16,8 18,9 18,0 35 19 45 24 NW 1014,4 - 0 0,0
10.07.2018 06:00:00 14,8 14,2 14,4 16,8 19,0 18,0 39 21 53 28 NW 1015,0 - 0 0,2
10.07.2018 05:00:00 15,0 12,8 14,7 17,0 19,1 18,0 48 26 59 32 NW 1015,4 - 0 0,0
10.07.2018 04:00:00 15,0 11,4 14,9 16,9 19,3 18,0 49 27 58 31 NW 1015,9 - 0 0,0
10.07.2018 03:00:00 15,4 11,8 15,0 16,8 19,4 18,0 50 27 61 33 NW 1016,6 - 0 0,0
10.07.2018 02:00:00 15,3 11,8 14,7 16,9 19,6 18,0 43 23 55 30 NW 1017,2 - 0 0,0
10.07.2018 01:00:00 14,8 11,3 13,7 17,2 19,8 18,0 47 26 58 31 NW 1017,9 - 0 0,0
10.07.2018 00:00:00 15,0 10,2 14,7 17,4 20,0 18,0 47 26 58 31 NNW 1018,6 - 0 0,0
09.07.2018 23:00:00 15,2 11,0 14,7 17,7 20,2 18,0 41 22 57 31 NNW 1019,2 14 0 0,0
09.07.2018 22:00:00 15,4 11,3 15,0 18,1 20,4 18,0 40 22 48 26 NW 1019,6 15 0 0,0
09.07.2018 21:00:00 14,9 11,4 14,7 18,8 20,6 18,0 36 19 45 25 NNW 1020,1 11 0 0,0

tt = temperature
td = dewpoint
tt 5cm = temperature 5cm
tt -5cm = temperature -5cm
tt -20cm = temperature -20cm
tt -100cm = temperature -100cm
ff = wind speed
fx = gusts
dd = wind direction
ppp = reduced air pressure
vv = visibility
sd = sunshine duration
rr = precipitation

Next stations